Regional Weather Roundup
Issued by NWS

Home | Current Version | Previous Version | Text Only | Print | Product List | Glossary Off
Versions: 1 2 3 4 5 6 7 8 9 10 11 12 13 14 15 16 17 18 19 20 21 22 23 24 25 26 27 28 29 30 31 32 33 34 35 36 37 38 39 40 41 42 43 44 45 46 47 48 49 50

000
ASUS45 KABQ 061501
RWRNM
WEATHER ROUNDUP FOR NEW MEXICO
NATIONAL WEATHER SERVICE ALBUQUERQUE NM
900 AM MDT WED MAY 06 2015

NOTE: "FAIR" MEANS FEW OR NO CLOUDS BELOW 12,000 FEET AGL WITH NO
       SIGNIFICANT WEATHER OR OBSTRUCTIONS TO VISION.

      THIS PRODUCT IS RELEASED AS TWO VERSIONS.  ONE VERSION NEAR
      THE TOP OF THE HOUR CONTAINING PRELIMINARY DATA FROM ALBUQUERQUE
      AND OTHER STATIONS.  A FINAL VERSION WITH ADDITIONAL DATA IS
      ISSUED ABOUT 10 MINUTES AFTER THE HOUR.

NMZ501-503-504-510>518-061600-
NORTHWEST PLATEAU/NORTHCENTRAL MOUNTAINS

CITY           SKY/WX    TMP DP  RH WIND       PRES   REMARKS
FARMINGTON     SUNNY     53  46  77 W6        29.91R
SANTA FE       MOSUNNY   54  43  66 W17       29.94S
TAOS           CLOUDY    46  37  71 SW14      29.96S
ANGEL FIRE     DRIZZLE   43  40  86 SW12G17   29.95R

$$
NMZ402-403-502-505>509-061600-
WESTCENTRAL MOUNTAINS/SOUTHWEST MOUNTAINS

CITY           SKY/WX    TMP DP  RH WIND       PRES   REMARKS
GALLUP         PTSUNNY   51  44  77 SW13      30.00S
GRANTS         PTSUNNY   53  42  67 NW9       30.02S
SILVER CITY      N/A     59  39  47 CALM      30.02S

$$
NMZ407-409-411-412-061600-
SOUTHERN DESERTS

CITY           SKY/WX    TMP DP  RH WIND       PRES   REMARKS
DEMING         SUNNY     61  42  49 CALM      29.97S
ALAMOGORDO     MOSUNNY   66  39  37 S8        29.96R
T OR C         PTSUNNY   59  38  45 S5        29.97R

$$
NMZ519>523-061600-
CENTRAL VALLEYS/CENTRAL HIGHLANDS

CITY           SKY/WX    TMP DP  RH WIND       PRES   REMARKS
ALBUQUERQUE    PTSUNNY   58  44  60 SW10      29.96S
DOUBLE EAGLE   PTSUNNY   55  45  67 SW12      29.97R
MORIARTY ARPT  FAIR      56  41  56 W21G26    29.98R
CLINES CORNERS MOSUNNY   52  42  69 W25G35    29.95S
BELEN          FAIR      59  41  50 W10       29.97S
SOCORRO        NOT AVBL

$$
NMZ524>526-539-540-061600-
SOUTHCENTRAL MOUNTAINS

CITY           SKY/WX    TMP DP  RH WIND       PRES   REMARKS
RUIDOSO        NOT AVBL

$$
NMZ527>531-061600-
NORTHEAST HIGHLANDS/NORTHEAST PLAINS

CITY           SKY/WX    TMP DP  RH WIND       PRES   REMARKS
LAS VEGAS      PTSUNNY   56  39  53 SW13      29.91R
RATON          PTSUNNY   59  42  53 S12G21    29.80F
CLAYTON        SUNNY     61  46  57 SW15      29.75S

$$
NMZ532>537-061600-
EASTCENTRAL PLAINS

CITY           SKY/WX    TMP DP  RH WIND       PRES   REMARKS
TUCUMCARI      MOSUNNY   66  47  50 W24G39    29.78S
CANNON AFB     NOT AVBL
CLOVIS AIRPORT SUNNY     63  46  55 SW23      29.88R

$$
NMZ028-029-538-061600-
SOUTHEAST PLAINS

CITY           SKY/WX    TMP DP  RH WIND       PRES   REMARKS
ROSWELL        SUNNY     63  48  58 NE3       29.91R
ARTESIA        SUNNY     72  41  33 SW8       29.91S
CARLSBAD       SUNNY     73  43  33 W16       29.89S
HOBBS          MOSUNNY   66  63  88 S13       29.93S


$$


USA.gov is the U.S. government's official web portal to all federal, state and local government web resources and services.